Printer-friendly version

IAU Minor Planet Center

Minor Planet Center

(12) Victoria

Orbital Elements

The following orbital elements are taken from MPC 24085:
   (12) Victoria
Epoch 2000 Feb. 26.0 TT = JDT 2451600.5  (M-c)          Bowell
M 358.89987              (2000.0)            P               Q
n   0.27631060     Peri.   69.39747     +0.56573122     +0.81579107
a   2.3345563      Node   235.62929     -0.80034228     +0.50816509
e   0.2186508      Incl.    8.36917     -0.19849538     +0.27613979
P   3.57           H    7.24          G   0.22
From 995 observations at 49 oppositions, 1850-1994, mean residual 0".62.
An explanation of the orbital elements is available.

These orbital elements are also available in forms suitable for loading into a number of popular planetarium-type software programs.


Ephemeris

The following ephemeris is at intervals of five days. A daily ephemeris covering the same time interval is also available.

Date    TT    R. A. (2000) Decl.     Delta      r     Elong.  Phase     V
 
2000 08 04    02 18.49   +21 27.3    1.714    2.028    92.4    30.0    11.1
2000 08 09    02 24.19   +21 55.2    1.671    2.040    95.8    29.6    11.1
2000 08 14    02 29.32   +22 19.4    1.628    2.051    99.3    29.2    11.0
2000 08 19    02 33.85   +22 39.8    1.585    2.063   103.0    28.6    11.0
2000 08 24    02 37.70   +22 56.1    1.543    2.075   106.8    27.8    10.9
2000 08 29    02 40.83   +23 08.3    1.502    2.087   110.8    26.9    10.8
2000 09 03    02 43.17   +23 15.9    1.462    2.099   115.1    25.8    10.8
2000 09 08    02 44.69   +23 18.8    1.424    2.111   119.5    24.5    10.7
2000 09 13    02 45.35   +23 16.7    1.388    2.123   124.2    23.1    10.6
2000 09 18    02 45.13   +23 09.2    1.354    2.136   129.1    21.4    10.5
2000 09 23    02 44.02   +22 56.3    1.324    2.148   134.3    19.5    10.4
2000 09 28    02 42.03   +22 37.5    1.297    2.161   139.7    17.5    10.3
2000 10 03    02 39.22   +22 12.9    1.275    2.173   145.3    15.2    10.2
2000 10 08    02 35.68   +21 42.5    1.257    2.186   151.0    12.8    10.1
2000 10 13    02 31.54   +21 06.7    1.245    2.198   157.0    10.2    10.0
2000 10 18    02 26.93   +20 26.0    1.239    2.211   163.0     7.6     9.9
2000 10 23    02 22.03   +19 41.3    1.239    2.224   168.9     4.9     9.8
2000 10 28    02 17.02   +18 53.7    1.246    2.236   174.0     2.6     9.7
2000 11 02    02 12.10   +18 04.4    1.259    2.249   174.6     2.4     9.7
2000 11 07    02 07.45   +17 15.0    1.279    2.261   169.9     4.4     9.9
2000 11 12    02 03.24   +16 26.8    1.306    2.274   164.0     6.9    10.1
2000 11 17    01 59.59   +15 41.1    1.339    2.286   158.1     9.3    10.2
2000 11 22    01 56.58   +14 59.0    1.378    2.299   152.2    11.5    10.4
2000 11 27    01 54.29   +14 21.2    1.424    2.311   146.5    13.6    10.5
2000 12 02    01 52.75   +13 48.4    1.474    2.324   140.9    15.5    10.7
2000 12 07    01 51.98   +13 21.0    1.529    2.336   135.5    17.2    10.8
2000 12 12    01 51.96   +12 59.0    1.588    2.348   130.3    18.6    11.0
2000 12 17    01 52.66   +12 42.3    1.651    2.361   125.3    19.9    11.1
2000 12 22    01 54.05   +12 30.7    1.717    2.373   120.5    20.9    11.2
2000 12 27    01 56.08   +12 24.0    1.786    2.385   115.8    21.8    11.4
2001 01 01    01 58.73   +12 21.8    1.857    2.397   111.3    22.5    11.5
2001 01 06    02 01.93   +12 23.8    1.931    2.409   107.0    23.0    11.6
2001 01 11    02 05.65   +12 29.5    2.005    2.420   102.7    23.3    11.7
2001 01 16    02 09.84   +12 38.4    2.081    2.432    98.7    23.6    11.8
2001 01 21    02 14.46   +12 50.2    2.157    2.444    94.7    23.7    11.9

Back to Bright Minor Planets

Astronomical Headlines Index


Valid HTML 4.01!